Location: *
(46.1200°N, 11.2700°E)
Time: 18:07:45
(UTC+00:00)

Cosmos 2341 Rocket - Pass Details

Date: 02 March 2021
Orbit: 968 x 1004 km, 82.9° (Epoch: 19 April)

Event Time Altitude Azimuth Distance (km) Brightness Sun altitude
Rises 18:00:35 0° 162° (SSE) 3,700 6.8 -10.8°
Reaches altitude 10° 18:03:15 10° 154° (SSE) 2,750 6.1 -11.3°
Maximum altitude 18:09:01 39° 88° (E) 1,440 4.4 -12.3°
Drops below altitude 10° 18:14:46 10° 22° (NNE) 2,744 6.2 -13.3°
Sets 18:17:26 0° 15° (NNE) 3,691 6.9 -13.7°
